STARLINK-34275

Last updated on Thu Jul 03 2025 00:02:07 GMT+0000 (Coordinated Universal Time)

1 64413U 25129B 25183.58335648 -.01558476 00000+0 -18501-1 0 9991 2 64413 69.9998 351.5809 0003228 265.8056 7.7516 15.63975344 3688
UTC large
Height (km)
Speed (km/s)
/
Latitude / Longitude
Inclination (degrees)
Orbital Period (minutes)
Azimuth
Elevation
Range (km)
Doppler Factor

Next 0 passes for location: London (51.5072 / 0.1276)

Sorry there are no passes over London.